Location: Altenst�hlen
(53.5567°N, 8.9425°E)
Time: 21:21:56
(UTC+00:00)

ATLAS 3B R/B - Pass Details

Date: 23 October 2019
Orbit: 1029 x 1166 km, 63.8° (Epoch: 10 November)

Event Time Altitude Azimuth Distance (km) Brightness Sun altitude
Rises 20:32:44 0° 250° (WSW) 3,804 5.9 -37.8°
Reaches altitude 10° 20:35:27 10° 255° (WSW) 2,841 5.2 -38.1°
Enters shadow 20:39:47 38° 281° (W) 1,527 3.7 -38.6°
